Location: McDonald Observatory
(30.6717°N, 104.0221°W)
Time: 12:21:37
(UTC-06:00)

Daily predictions for brighter satellites

Satellite Brightness Start Highest point End
(mag) Time Altitude Azimuth Time Altitude Azimuth Time Altitude Azimuth
Cosmos 1346 Rocket 4.1 18:19:36 10° SE 18:22:29 20° E 18:25:22 10° NE
PAYLOAD A 4.1 18:21:20 10° S 18:26:03 76° WSW 18:30:56 10° NNW
Cosmos 1844 Rocket 3.5 18:21:13 10° SW 18:26:39 53° WNW 18:32:07 10° N
SPOT 3 Rocket 3.5 18:28:11 10° SSE 18:33:23 82° ENE 18:38:35 10° N
SL-8 R/B 4.4 18:29:24 10° WSW 18:34:01 49° NW 18:38:39 10° NE
CZ-3B DEB 2.9 18:31:58 10° W 18:34:52 34° NNW 18:41:16 10° NNE
CZ-4 R/B 1.9 18:30:53 10° S 18:35:03 69° W 18:39:13 10° NNW
MSX 3.9 18:30:14 10° SSE 18:35:49 53° ENE 18:41:23 10° N
SJ-12 4.1 18:32:39 10° S 18:36:43 80° W 18:40:50 10° NNW
Cosmos 1844 4.4 18:34:57 10° SW 18:40:22 55° WNW 18:45:49 10° N
Cosmos 2297 4.3 18:37:01 10° SSE 18:42:07 36° ESE 18:47:13 10° NE
CORIOLIS 4.1 18:37:33 10° SSE 18:42:58 85° ENE 18:48:24 10° NNW
SL-08 R/B 4.5 18:43:28 10° N 18:49:51 81° E 18:56:06 10° S
IDEFIX/ARIANE 42P 3.0 18:46:48 10° S 18:51:58 68° WSW 18:57:08 10° NNW
Cosmos 1975 3.1 18:48:49 10° N 18:52:42 44° E 18:56:33 10° SSE
Cosmos 2278 Rocket 2.5 18:51:48 10° SSW 18:57:24 68° WNW 19:03:02 10° NNE
Meteor 1-12 Rocket 4.2 18:52:12 10° N 18:58:00 72° E 19:03:53 10° SSE
COSMO-SKYMED 1 2.5 18:55:39 10° NNE 19:00:01 88° ESE 19:04:20 10° SSW
Cosmos 1544 Rocket 4.1 18:55:43 10° NNW 19:00:08 63° W 19:04:32 10° S
Tiangong 1 1.4 18:57:14 10° WSW 19:00:12 54° NNW 19:01:34 27° NE
EP 1 4.2 19:00:48 10° SSW 19:03:41 89° NW 19:04:42 33° NNE
Nadezhda 3 Rocket 4.0 18:57:56 10° S 19:03:59 62° E 19:10:07 10° NNE
Cosmos 494 Rocket 3.9 19:04:57 10° NNW 19:10:13 81° ENE 19:15:29 10° SSE
Cosmos 1484 Rocket 2.6 19:06:38 10° SSE 19:10:25 86° E 19:14:10 10° N
Chunghua 1 4.5 19:09:22 10° WSW 19:13:13 86° SSE 19:14:33 39° ENE
Meteor 1-13 Rocket 4.1 19:11:09 10° S 19:16:43 73° E 19:22:26 10° NNE
ATLAS 2AS CENTAUR R/B 2.9 19:13:59 10° NNW 19:21:59 87° ENE 19:29:18 10° SSE
Meteor 2-14 Rocket 4.5 19:18:54 10° N 19:24:56 55° E 19:30:54 10° SSE
Cosmos 2082 Rocket 3.1 19:23:28 10° N 19:27:09 28° NE 19:27:09 28° NE
NOAA 12 4.1 19:23:39 10° SSE 19:28:48 58° ENE 19:33:59 10° N
Cosmos 1025 Rocket 3.1 19:25:33 10° SSE 19:29:44 50° E 19:29:53 50° E
Timation 1 Rocket 4.2 19:24:11 10° SSW 19:30:07 84° ESE 19:34:04 23° NNE
Cosmos 2251 Rocket 4.4 19:25:35 10° NNW 19:30:45 52° WSW 19:35:52 10° S
Meteor 1-23 Rocket 4.5 19:25:47 10° SSE 19:31:13 46° E 19:32:43 37° NE
Cosmos 1833 Rocket 4.2 19:27:18 10° N 19:29:26 20° NNE 19:29:26 20° NNE
METEOR-M 4.1 19:28:22 10° SSE 19:33:32 53° ENE 19:38:43 10° N
Cosmos 1500 3.7 19:30:42 10° NNW 19:34:29 59° W 19:38:15 10° S
Cosmos 921 Rocket 3.0 19:32:31 10° SSW 19:36:42 76° WNW 19:38:26 35° N
Meteor 1-28 Rocket 4.0 19:35:18 17° N 19:38:02 49° WNW 19:41:41 10° SSW
Hubble Space Telescope 3.5 19:39:54 10° WSW 19:42:07 14° SSW 19:44:21 10° S
Meteor 2-21 Rocket 4.4 19:35:59 10° N 19:42:12 89° E 19:48:19 10° S
Okean 1-7 Rocket 4.0 19:39:20 10° SSW 19:43:48 62° W 19:47:00 19° N
Meteor 2-16 Rocket 4.3 19:40:59 10° N 19:47:05 79° E 19:53:09 10° S
FALCON 9 R/B 3.2 19:25:28 10° W 19:48:25 74° NNW 19:51:03 44° ENE
Meteor 2-4 Rocket 3.4 19:43:09 10° S 19:48:36 80° E 19:50:24 43° NNE
OTV 4 2.5 19:45:58 10° WNW 19:47:44 29° W 19:47:44 29° W
GEOS 3 Rocket 3.5 19:57:49 42° SSE 19:59:35 83° WSW 20:04:44 10° NNW
Delta 2 Rocket 4.2 19:55:49 10° W 19:58:57 45° NW 19:58:57 45° NW
Cosmos 1535 Rocket 4.5 20:01:10 10° N 20:07:28 81° W 20:13:39 10° S
Cosmos 1934 Rocket 3.8 20:03:59 10° N 20:10:12 82° E 20:16:30 10° S
Timation 2 Rocket 4.1 20:08:12 10° NNW 20:15:06 88° WSW 20:18:29 33° SSE
Cosmos 2056 Rocket 3.8 20:10:36 10° SSW 20:15:26 68° WSW 20:15:26 68° WSW
ATLAS 3B CENTAUR R/B 3.9 21:07:36 10° W 21:15:39 40° WSW 21:15:39 40° WSW
